Vertical_Velocity
-0 -0 -0 0 1 1 1 1 2 2 2 1 -1 -1 0 1 0 -0 0 1 1 1 0 0 1 0 -0 0 1 0 -1 -1 -1 -0 0 0 0 -0 -0 -0 0 0 -0 -1 -0 -0 -1 -0 -0 -1 -2 -2 -2 -2 -1 1 2 2 2 2 1 0 1 1 -2 -4 -3 -1 1
-1 -0 0 1 1 1 0 0 1 2 2 2 1 1 2 2 1 -0 0 1 3 3 2 1 1 1 1 1 2 1 -1 -3 -3 -3 -2 -2 -1 -0 0 -0 0 1 1 1 0 -0 -0 -1 -1 -2 -3 -3 -2 -2 -1 1 2 1 0 1 2 2 1 0 -1 -2 -2 -1 2
-1 -1 -1 -0 0 0 -0 -1 0 1 1 1 1 2 3 2 1 1 1 2 3 3 3 2 2 2 2 1 1 0 -0 -2 -3 -4 -3 -2 -2 -1 0 0 -0 1 2 2 2 1 0 -0 -1 -2 -3 -3 -3 -2 -2 -1 1 2 1 0 1 1 1 1 2 2 -0 -2 0
-0 -1 -1 -1 -0 1 1 0 -0 -0 0 -0 0 2 3 2 2 2 2 2 2 2 2 3 3 3 2 2 0 -0 -0 -0 -1 -1 -1 -1 -1 -0 0 1 -0 -0 -0 1 1 1 1 1 -0 -2 -3 -3 -2 -2 -2 -2 0 1 2 1 0 -0 0 2 4 3 0 -4 -2
-1 -0 0 1 1 2 2 2 1 -0 -0 -1 0 2 2 2 2 1 1 0 1 2 3 4 4 4 4 3 1 -1 -1 -0 1 1 0 -0 -0 -0 -0 -0 -0 -1 -1 -1 0 1 1 2 0 -1 -2 -3 -3 -2 -2 -1 -0 1 1 0 -1 -1 -0 0 2 2 -0 -7 -5
-3 -2 -0 1 2 2 2 2 2 1 1 0 2 2 2 2 2 1 2 2 2 2 2 3 3 3 2 0 -1 -1 -1 -0 2 2 2 1 0 -0 -1 -2 -2 -2 -2 -2 -1 -0 1 2 0 -1 -2 -2 -3 -3 -2 -0 -0 0 -0 -1 -2 -1 -1 -1 0 0 -3 -10 -7
-1 -1 -1 -0 0 1 1 1 1 1 1 1 2 2 2 2 2 2 3 4 2 1 0 1 1 0 -1 -2 -2 -2 -1 -0 1 2 2 1 1 0 -0 -1 -2 -3 -2 -2 -2 -2 -0 1 -0 -2 -3 -2 -3 -3 -3 -0 0 0 -0 -1 -1 -1 -1 -2 -2 -2 -4 -10 -6
-0 -0 0 0 0 0 0 0 0 -0 -0 1 2 2 2 2 2 1 1 1 0 1 1 1 1 0 0 -0 -1 -0 -0 -0 0 1 1 2 1 1 0 -0 -2 -3 -2 -1 -1 -1 0 1 0 -1 -2 -2 -2 -2 -1 1 2 1 0 -0 -0 -1 -2 -3 -4 -4 -6 -9 -6
-2 -1 -1 -0 0 0 0 1 1 0 0 1 2 2 2 2 2 1 -0 -1 1 2 2 1 0 0 0 -0 -0 -0 0 0 0 1 1 2 2 1 0 -1 -3 -3 -3 -0 1 2 2 3 2 -0 -1 -1 -2 -1 -0 2 2 2 2 2 0 -0 -0 -1 -4 -5 -5 -5 -4
-2 -2 -2 -2 -1 -1 -0 -0 0 0 1 1 2 2 2 2 2 1 1 1 2 2 2 1 -0 -1 -1 -1 -1 -1 -0 0 0 1 2 3 3 2 1 1 -1 -3 -2 1 2 2 3 4 4 3 1 0 -0 -1 -0 0 1 4 6 3 0 -0 0 0 -3 -3 -3 -2 -2
-0 -0 -1 -1 -1 -1 -1 -1 -1 -0 0 1 1 1 1 1 1 1 2 3 2 1 1 1 0 -0 -1 -1 -1 -1 -0 0 0 1 1 2 3 3 3 3 2 0 -0 2 4 3 2 3 6 8 7 6 3 0 -2 -2 3 8 10 4 1 1 2 2 2 1 1 1 1
-0 -0 0 1 0 -0 -1 -1 -1 -1 -0 0 0 0 0 1 1 1 1 2 1 0 -0 1 1 0 -0 -1 -2 -2 -2 -1 0 1 1 2 2 2 2 2 2 1 -0 0 2 2 2 2 3 6 9 11 7 2 -1 0 10 13 11 3 0 1 3 5 6 4 2 2 4
0 0 0 0 -0 -1 -1 -1 -1 -1 -1 -0 0 0 0 1 1 1 0 0 -0 -0 -0 0 1 1 1 -0 -1 -2 -2 -2 -0 1 2 3 2 2 1 0 2 1 -0 -1 -1 0 2 3 4 6 7 9 5 2 2 7 13 12 7 0 0 2 4 4 4 3 1 0 4
1 1 0 0 -0 -1 -2 -2 -2 -2 -1 -1 0 0 1 1 1 1 0 0 0 0 0 -0 0 1 2 2 -0 -0 -0 -0 -1 -0 1 2 3 2 1 1 2 2 1 -1 -1 -1 -1 1 4 6 6 5 3 3 6 11 11 9 5 2 3 3 3 3 2 1 -1 -3 1
0 0 0 -0 -0 -1 -1 -2 -3 -2 -2 -1 0 1 1 1 1 1 1 0 1 1 1 1 0 1 2 3 1 0 0 0 -0 -1 -1 -1 1 2 2 2 2 3 2 1 1 -0 -0 -0 2 4 4 4 3 4 6 9 10 9 7 5 4 3 3 2 2 1 -3 -7 -6
-1 -1 -0 -1 -0 -0 -1 -1 -1 -1 -1 -1 0 1 1 1 1 1 1 1 1 1 2 2 1 0 0 2 2 0 -0 -0 -1 -2 -3 -3 -2 0 2 3 2 2 2 2 2 2 1 -0 -0 1 3 3 3 3 4 5 6 7 7 5 4 3 2 -0 0 -0 -3 -8 -9
-1 -1 -0 -0 -0 -0 -0 -0 0 -0 -0 -0 -0 0 1 1 1 1 2 2 2 2 1 2 2 0 -0 0 0 -1 -2 -2 -2 -2 -3 -3 -3 -1 1 3 3 2 2 3 3 3 2 0 -1 -0 1 2 3 3 3 4 5 6 6 6 4 3 1 -1 -1 -1 -2 -5 -6
-2 -1 -1 -1 -1 -1 -1 -0 0 0 0 -0 -0 0 1 2 1 1 2 4 4 2 1 1 1 0 0 0 0 -1 -2 -3 -2 -2 -1 -2 -1 -0 1 3 4 3 2 3 3 4 4 2 0 -1 -1 -0 1 2 4 4 5 6 6 8 7 5 3 0 1 1 -0 -2 -2
-2 -2 -2 -2 -2 -2 -1 -1 -0 -0 0 0 0 1 1 2 2 1 1 1 2 3 2 1 0 -0 0 2 1 0 -1 -2 -2 -2 -1 -0 -1 -1 0 2 4 4 4 3 4 4 4 3 1 -0 -2 -2 -1 0 2 4 4 6 7 9 9 8 6 5 5 4 2 -1 -0
-2 -2 -2 -2 -2 -2 -1 -1 -0 0 1 1 0 0 0 1 1 1 0 -1 1 3 4 2 0 -1 -1 2 1 1 -0 -1 -2 -3 -2 -1 -1 -2 -1 1 3 4 5 5 7 6 4 2 1 -1 -2 -3 -3 -2 -0 2 3 5 6 8 10 10 9 9 8 6 3 1 0
-1 -1 -1 -1 -1 -1 -1 -0 0 1 1 1 1 0 0 0 0 0 1 1 1 2 3 2 1 -1 -1 0 1 1 0 -0 -2 -3 -3 -3 -2 -2 -1 -0 2 4 6 8 9 8 6 3 1 -1 -2 -4 -4 -4 -3 -1 1 3 5 6 8 9 10 11 10 7 5 3 2
-1 -0 -0 -1 -1 -0 -0 0 1 1 1 1 0 0 -0 -1 -0 0 1 2 1 2 2 2 1 0 -1 -0 2 2 1 0 -0 -1 -2 -3 -3 -2 -2 -2 0 3 6 7 6 9 10 5 2 -1 -3 -5 -5 -5 -4 -3 -0 2 4 5 7 8 10 11 11 9 8 6 4
-0 -0 -0 -0 -0 0 0 0 0 0 -0 -1 -1 -1 -1 -1 -1 -0 1 1 1 1 1 1 1 1 1 -0 1 1 0 -1 -2 -2 -2 -3 -4 -4 -4 -4 -2 0 3 4 3 13 19 6 3 -0 -3 -5 -6 -7 -6 -4 -2 -0 2 3 5 6 8 10 10 10 9 8 7
0 0 1 0 0 1 1 0 -0 -1 -2 -2 -2 -2 -1 -1 -2 -2 -1 -0 -0 0 0 0 0 1 1 -0 -0 -0 -0 -2 -4 -5 -5 -5 -4 -4 -5 -5 -4 -2 1 3 1 19 29 6 3 1 -2 -4 -6 -7 -7 -6 -4 -2 0 1 2 4 5 7 8 9 9 10 10
0 0 1 1 0 1 1 0 -1 -2 -2 -2 -1 -1 -1 -2 -2 -2 -2 -2 -1 -1 -1 -1 -0 -0 -0 -1 -1 -0 -0 -1 -3 -6 -8 -9 -7 -5 -4 -3 -3 -2 0 2 2 24 36 4 3 1 -0 -2 -4 -6 -8 -8 -6 -3 -1 0 1 1 2 4 5 6 7 8 10
-0 -0 -0 -0 0 0 0 -0 -1 -1 -1 -1 -2 -2 -2 -2 -2 -2 -2 -2 -2 -1 -1 -1 -1 -2 -2 -2 -1 -0 -1 -1 -2 -5 -8 -10 -9 -7 -3 -1 0 2 2 1 15 28 28 3 2 1 0 -0 -2 -5 -8 -9 -8 -6 -3 -1 -1 -0 -0 0 1 3 5 7 9
-1 -2 -1 -0 -0 -0 -0 -0 -1 -1 -2 -2 -2 -2 -2 -2 -2 -2 -2 -2 -1 -1 -1 -1 -1 -2 -2 -3 -2 -1 -1 -0 -2 -4 -6 -8 -8 -5 -2 0 3 4 6 9 34 30 13 1 1 1 1 1 -1 -4 -6 -8 -8 -7 -6 -4 -3 -2 -2 -2 -1 -0 2 4 6
-2 -2 -2 -1 -1 -1 -1 -1 -2 -2 -2 -2 -2 -2 -2 -2 -2 -2 -2 -2 -1 -2 -3 -4 -3 -2 -2 -3 -3 -1 -0 -0 -1 -4 -6 -7 -5 -1 1 2 3 6 14 34 36 20 2 -1 1 2 2 2 0 -2 -4 -7 -7 -8 -7 -6 -5 -4 -3 -3 -2 -2 -1 1 3
-2 -2 -2 -2 -2 -2 -2 -2 -3 -3 -2 -2 -2 -2 -2 -2 -1 -2 -2 -3 -3 -4 -5 -5 -4 -3 -2 -2 -3 -2 -1 -1 -1 -3 -5 -7 -4 0 3 3 2 6 20 45 27 8 -5 -3 -0 1 2 3 2 -0 -3 -5 -6 -6 -6 -6 -5 -4 -3 -2 -2 -2 -2 -1 0
-2 -2 -2 -2 -2 -2 -2 -2 -2 -2 -2 -2 -2 -2 -2 -2 -3 -4 -4 -5 -4 -3 -1 -1 -1 -0 -0 0 -1 -2 -2 -2 -2 -3 -4 -6 -3 0 3 3 1 3 13 37 28 9 -6 -4 -2 -1 0 1 1 0 -0 -2 -3 -5 -5 -5 -3 -2 -0 1 1 0 -1 -1 -1
-2 -2 -2 -2 -2 -2 -2 -2 -2 -2 -3 -3 -2 -2 -2 -3 -3 -3 -3 -3 -3 -1 0 1 1 1 1 1 0 -0 -1 -2 -2 -3 -3 -4 -2 -0 1 1 1 -0 5 27 36 17 -4 -4 -4 -3 -2 -1 -1 -0 0 0 -1 -2 -3 -3 -2 0 2 3 3 2 1 -1 -2
-2 -2 -3 -2 -2 -1 -1 -1 -3 -3 -4 -3 -2 -2 -2 -1 -0 0 -0 -1 -2 -2 -3 -2 -2 -2 -2 -2 -1 -0 -1 -3 -3 -2 -1 -1 -1 -0 -0 -1 1 0 4 19 38 23 0 -5 -4 -3 -3 -2 -1 -0 1 1 1 0 -1 -1 -1 1 3 4 4 3 2 0 -2
-3 -3 -2 -2 -2 -2 -1 -2 -3 -3 -3 -2 -2 -1 -1 -1 -1 -1 -1 -2 -2 -2 -2 -3 -3 -3 -3 -3 -0 -0 -1 -3 -3 -2 -1 0 1 0 -1 -3 0 1 3 9 30 27 12 -6 -4 -3 -2 -0 -0 0 1 1 2 2 1 1 0 2 3 4 3 2 1 0 -1
-3 -3 -2 -1 -2 -2 -2 -3 -3 -3 -2 -3 -2 -1 -1 -1 -3 -4 -4 -3 -2 -1 0 1 -0 -0 0 2 5 4 1 -2 -3 -3 -2 -0 1 1 -0 -3 -1 0 1 2 19 31 27 -4 -5 -4 -2 -1 -0 -0 -0 0 1 1 2 2 2 2 3 3 2 1 0 -0 -1
-3 -2 -2 -1 -1 -1 -2 -4 -3 -2 -2 -3 -2 -2 -1 -1 -1 -2 -3 -3 -2 -1 0 1 1 1 1 2 7 6 2 -1 -3 -3 -2 -1 0 0 -0 -3 -3 -1 0 1 10 28 33 5 -5 -7 -5 -3 -2 -2 -2 -1 -1 -0 1 2 2 3 3 3 1 0 -1 -1 -1
-1 -1 -1 -1 -1 -1 -2 -4 -3 -2 -2 -2 -3 -3 -3 -3 -2 -1 -1 -2 -2 -1 -0 1 -1 -2 -2 -2 3 4 3 1 -2 -3 -2 -1 -0 0 -0 -2 -4 -4 -2 -0 2 15 28 30 3 -6 -7 -4 -4 -3 -3 -3 -2 -1 -1 -0 0 2 3 3 2 1 -1 -0 1
-0 0 -0 -1 -1 -1 -2 -4 -3 -3 -2 -2 -2 -2 -3 -3 -3 -2 -2 -2 -4 -3 -1 1 -1 -3 -4 -4 1 4 5 4 1 -2 -3 -2 -1 -0 -1 -2 -4 -5 -4 -3 -2 4 18 42 22 5 -5 -3 -3 -4 -4 -4 -3 -2 -2 -2 -1 -1 0 2 2 1 -0 1 7
0 0 0 -0 -0 -1 -3 -4 -3 -2 -2 -1 -1 -1 -1 -2 -3 -3 -2 -2 -2 -2 -0 -0 -1 -2 -2 -4 -1 2 5 6 3 0 -2 -3 -1 -0 -0 -1 -3 -5 -6 -5 -4 -2 5 24 38 23 4 3 0 -3 -4 -5 -4 -3 -2 -2 -2 -2 -1 -0 -0 -1 -2 -0 12
-0 0 1 0 -0 -1 -3 -3 -2 -2 -1 -1 -1 -1 -2 -2 -3 -2 -1 0 1 3 3 0 -0 -0 -0 -2 -2 -1 2 4 4 2 -0 -3 -2 0 1 0 -1 -3 -5 -6 -5 -4 -2 4 29 28 16 10 4 -0 -3 -4 -4 -4 -3 -3 -2 -2 -2 -1 -1 -3 -4 -4 9
0 0 1 1 0 -1 -3 -3 -2 -0 0 1 -1 -2 -2 -2 -1 -1 -0 0 3 4 4 1 1 1 2 2 1 -0 -0 1 2 2 0 -2 -1 -0 1 1 0 -1 -3 -5 -5 -5 -5 -4 13 22 22 9 5 2 -1 -3 -4 -4 -4 -4 -4 -3 -3 -2 -2 -2 -3 -4 1
0 0 0 1 0 -1 -3 -3 -2 -1 0 1 1 0 -0 0 0 -0 -1 -0 4 4 3 1 1 2 3 4 4 3 1 -0 0 0 0 -0 -1 -1 -0 0 0 -0 -2 -3 -4 -5 -5 -4 6 16 18 4 2 1 0 -2 -3 -4 -5 -4 -4 -4 -4 -3 -2 -2 -2 -3 -4
Height
1500 1499 1497 1496 1494 1492 1491 1489 1487 1486 1484 1482 1480 1478 1476 1475 1472 1470 1468 1466 1465 1462 1460 1458 1456 1453 1451 1448 1446 1444 1441 1439 1437 1435 1433 1431 1430 1428 1426 1425 1423 1422 1420 1419 1417 1416 1415 1414 1413 1411 1410 1409 1408 1407 1407 1407 1407 1407 1407 1407 1407 1406 1406 1406 1406 1406 1407 1407 1407
1500 1498 1497 1496 1494 1492 1490 1488 1486 1485 1483 1481 1479 1478 1476 1474 1472 1470 1468 1466 1464 1462 1460 1457 1455 1453 1450 1448 1446 1443 1441 1438 1435 1433 1431 1430 1428 1426 1425 1423 1421 1420 1419 1417 1416 1414 1413 1411 1411 1409 1407 1406 1406 1405 1404 1405 1405 1405 1405 1405 1405 1404 1404 1403 1403 1404 1405 1405 1404
1499 1497 1496 1495 1493 1491 1489 1487 1485 1483 1481 1480 1479 1477 1476 1474 1472 1469 1467 1465 1464 1461 1459 1457 1455 1452 1450 1447 1445 1442 1440 1437 1435 1432 1430 1428 1426 1425 1423 1422 1420 1418 1417 1415 1414 1412 1411 1409 1408 1407 1405 1404 1403 1402 1402 1402 1403 1403 1403 1402 1402 1402 1401 1401 1401 1401 1402 1402 1402
1499 1497 1495 1494 1492 1491 1489 1487 1485 1482 1481 1479 1478 1476 1475 1473 1471 1469 1466 1464 1462 1461 1459 1456 1454 1452 1450 1447 1444 1442 1439 1437 1434 1432 1429 1427 1426 1424 1422 1420 1418 1416 1415 1413 1411 1410 1409 1407 1406 1404 1403 1402 1401 1401 1400 1400 1401 1401 1401 1401 1400 1400 1399 1399 1399 1399 1399 1399 1399
1498 1496 1495 1493 1492 1490 1488 1486 1484 1482 1480 1478 1477 1476 1474 1472 1470 1467 1465 1463 1461 1460 1458 1456 1454 1452 1449 1447 1444 1441 1438 1436 1434 1431 1429 1426 1424 1422 1421 1419 1416 1414 1412 1411 1409 1408 1406 1405 1404 1402 1401 1400 1399 1399 1398 1398 1399 1399 1399 1399 1399 1398 1398 1397 1397 1397 1397 1397 1397
1497 1496 1494 1493 1491 1489 1487 1485 1483 1481 1479 1478 1476 1475 1473 1471 1468 1466 1464 1462 1461 1459 1457 1455 1453 1451 1448 1446 1443 1441 1438 1435 1433 1431 1428 1426 1423 1421 1419 1417 1415 1413 1411 1408 1407 1405 1404 1403 1401 1400 1399 1398 1398 1397 1397 1397 1397 1397 1397 1397 1397 1397 1396 1396 1395 1395 1395 1396 1395
1498 1496 1494 1492 1490 1488 1486 1484 1482 1480 1478 1477 1475 1474 1471 1469 1467 1466 1464 1462 1460 1458 1456 1454 1452 1450 1447 1445 1442 1440 1437 1435 1432 1430 1428 1425 1423 1421 1418 1416 1413 1411 1409 1406 1405 1403 1402 1401 1400 1398 1397 1397 1396 1396 1396 1396 1396 1396 1396 1396 1396 1395 1395 1394 1393 1393 1393 1394 1394
1497 1496 1494 1492 1490 1487 1485 1483 1481 1479 1477 1476 1474 1472 1470 1468 1466 1464 1462 1461 1459 1457 1455 1453 1451 1449 1447 1445 1442 1440 1437 1435 1432 1430 1427 1425 1422 1420 1417 1415 1412 1410 1407 1405 1403 1401 1400 1399 1398 1397 1396 1396 1396 1395 1395 1395 1395 1395 1395 1395 1394 1394 1393 1392 1392 1391 1391 1392 1392
1497 1495 1493 1491 1489 1487 1485 1483 1481 1479 1477 1475 1473 1471 1469 1467 1466 1463 1461 1460 1458 1456 1455 1452 1451 1448 1446 1444 1442 1440 1437 1434 1432 1429 1427 1424 1422 1419 1417 1414 1411 1409 1406 1404 1402 1400 1399 1398 1397 1396 1396 1395 1395 1394 1394 1394 1394 1394 1393 1393 1392 1392 1392 1391 1391 1390 1390 1390 1390
1496 1494 1492 1490 1488 1486 1484 1482 1480 1478 1476 1474 1472 1471 1468 1467 1465 1463 1461 1459 1457 1456 1454 1452 1450 1448 1446 1444 1441 1439 1437 1435 1432 1429 1427 1425 1422 1419 1416 1414 1411 1408 1406 1403 1401 1400 1398 1397 1396 1396 1395 1394 1394 1393 1393 1392 1392 1392 1392 1391 1391 1391 1390 1390 1389 1388 1388 1388 1388
1496 1494 1492 1490 1487 1486 1483 1481 1479 1477 1475 1473 1471 1469 1467 1466 1464 1462 1460 1459 1457 1455 1453 1451 1449 1447 1445 1443 1441 1439 1437 1435 1432 1430 1427 1425 1422 1419 1417 1414 1412 1409 1406 1404 1402 1400 1398 1396 1396 1395 1395 1394 1393 1393 1392 1391 1391 1391 1391 1390 1389 1389 1389 1388 1387 1387 1386 1386 1386
1496 1494 1491 1490 1487 1485 1483 1481 1478 1476 1475 1473 1471 1469 1466 1465 1463 1461 1460 1458 1456 1454 1452 1451 1449 1447 1445 1443 1441 1439 1437 1435 1432 1430 1427 1425 1422 1420 1417 1415 1412 1410 1407 1405 1403 1401 1398 1396 1395 1394 1394 1393 1393 1392 1391 1391 1391 1390 1390 1389 1388 1388 1387 1387 1386 1386 1385 1385 1384
1495 1493 1491 1489 1487 1485 1482 1480 1478 1476 1474 1472 1470 1468 1466 1464 1462 1461 1459 1457 1455 1453 1451 1450 1448 1447 1445 1443 1441 1439 1436 1435 1432 1430 1428 1425 1423 1420 1417 1415 1412 1410 1408 1406 1404 1402 1400 1398 1396 1394 1393 1392 1392 1392 1391 1391 1390 1389 1388 1387 1387 1386 1386 1386 1386 1386 1385 1384 1384
1495 1493 1491 1489 1486 1484 1482 1480 1478 1476 1474 1472 1470 1468 1466 1464 1462 1460 1458 1456 1455 1453 1451 1449 1448 1446 1445 1443 1441 1439 1436 1434 1432 1430 1428 1426 1423 1421 1418 1415 1413 1411 1409 1407 1405 1403 1401 1399 1396 1394 1393 1392 1391 1391 1391 1390 1389 1388 1387 1386 1386 1386 1386 1385 1386 1386 1385 1385 1384
1494 1492 1491 1488 1486 1484 1482 1480 1478 1476 1474 1472 1470 1468 1466 1463 1461 1460 1458 1456 1454 1452 1451 1449 1447 1446 1444 1443 1441 1438 1436 1434 1432 1430 1428 1426 1423 1421 1418 1416 1413 1411 1410 1408 1406 1404 1402 1400 1398 1396 1393 1392 1391 1390 1390 1389 1388 1387 1387 1386 1385 1385 1385 1385 1385 1385 1385 1385 1385
1494 1492 1490 1488 1486 1484 1482 1480 1478 1476 1474 1472 1470 1468 1466 1463 1461 1459 1457 1456 1454 1452 1450 1449 1447 1445 1443 1442 1440 1438 1436 1434 1432 1430 1428 1426 1423 1421 1419 1416 1414 1412 1411 1409 1407 1405 1403 1401 1399 1396 1395 1392 1391 1390 1389 1388 1388 1387 1386 1386 1385 1385 1384 1384 1384 1384 1385 1385 1386
1493 1491 1490 1487 1486 1484 1481 1480 1478 1476 1474 1472 1470 1467 1466 1463 1461 1459 1457 1456 1454 1452 1450 1448 1446 1445 1443 1441 1440 1438 1436 1434 1432 1430 1428 1426 1423 1421 1419 1417 1415 1413 1411 1410 1408 1406 1405 1402 1400 1398 1396 1394 1392 1391 1389 1388 1387 1386 1386 1385 1385 1384 1384 1384 1384 1385 1385 1385 1386
1492 1491 1489 1487 1485 1483 1481 1479 1477 1476 1473 1471 1469 1467 1466 1463 1461 1459 1457 1456 1454 1451 1449 1447 1446 1444 1443 1441 1440 1438 1436 1434 1432 1430 1428 1426 1424 1422 1420 1417 1416 1414 1412 1411 1409 1407 1406 1404 1402 1400 1397 1395 1393 1392 1390 1389 1388 1387 1386 1385 1385 1384 1384 1384 1385 1384 1385 1385 1385
1492 1490 1488 1486 1484 1482 1481 1479 1476 1475 1473 1471 1469 1467 1465 1463 1461 1459 1457 1455 1453 1451 1449 1447 1445 1444 1442 1441 1439 1438 1436 1434 1432 1430 1428 1426 1424 1422 1420 1418 1416 1415 1413 1411 1410 1408 1406 1405 1403 1401 1399 1397 1395 1393 1392 1390 1389 1387 1386 1386 1385 1385 1384 1384 1384 1384 1384 1384 1384
1491 1489 1487 1485 1483 1481 1480 1478 1476 1474 1472 1470 1468 1466 1464 1462 1461 1458 1456 1454 1453 1451 1449 1447 1445 1443 1442 1441 1439 1437 1436 1434 1432 1430 1428 1426 1424 1422 1420 1418 1417 1415 1414 1412 1411 1409 1407 1406 1404 1402 1401 1399 1397 1395 1393 1392 1390 1389 1388 1386 1386 1385 1385 1384 1384 1383 1383 1383 1383
1490 1488 1486 1485 1483 1481 1479 1477 1476 1474 1471 1470 1467 1466 1464 1462 1460 1458 1456 1454 1452 1451 1449 1447 1445 1443 1441 1440 1439 1437 1435 1434 1432 1430 1428 1426 1424 1422 1421 1419 1417 1416 1414 1412 1411 1410 1408 1406 1405 1403 1402 1400 1399 1397 1395 1394 1392 1391 1389 1387 1386 1386 1385 1384 1383 1383 1383 1383 1383
1489 1487 1486 1484 1482 1480 1478 1477 1475 1473 1471 1469 1467 1465 1463 1461 1459 1457 1456 1454 1452 1450 1449 1447 1445 1443 1441 1440 1438 1437 1435 1433 1432 1430 1429 1426 1425 1423 1421 1419 1417 1416 1414 1412 1411 1410 1409 1407 1405 1404 1402 1401 1400 1398 1397 1396 1394 1392 1391 1389 1387 1386 1385 1384 1383 1383 1383 1382 1382
1488 1486 1485 1483 1481 1479 1478 1476 1474 1472 1470 1468 1466 1464 1462 1460 1458 1457 1455 1453 1451 1450 1448 1446 1445 1443 1441 1440 1438 1436 1435 1433 1431 1430 1428 1427 1425 1423 1421 1419 1417 1416 1414 1412 1411 1411 1410 1407 1406 1404 1402 1401 1400 1399 1398 1397 1395 1394 1392 1391 1389 1387 1386 1385 1384 1383 1383 1382 1382
1488 1486 1484 1482 1480 1478 1477 1475 1473 1471 1469 1467 1465 1463 1461 1459 1457 1456 1454 1452 1451 1449 1448 1446 1444 1443 1441 1439 1438 1436 1435 1433 1431 1429 1428 1426 1425 1423 1421 1419 1417 1416 1414 1413 1411 1412 1411 1407 1406 1404 1403 1401 1401 1399 1399 1397 1396 1395 1393 1391 1390 1389 1387 1386 1385 1384 1383 1383 1383
1487 1485 1483 1481 1479 1477 1476 1474 1471 1470 1468 1466 1464 1462 1461 1459 1457 1455 1453 1452 1450 1448 1447 1446 1444 1442 1441 1439 1437 1436 1435 1433 1431 1429 1427 1426 1425 1423 1421 1419 1417 1416 1415 1413 1412 1412 1412 1407 1406 1405 1403 1402 1401 1400 1399 1398 1397 1396 1394 1392 1391 1390 1388 1387 1386 1385 1384 1384 1383
1486 1484 1482 1480 1478 1476 1475 1473 1471 1469 1467 1465 1464 1462 1460 1458 1456 1454 1453 1451 1449 1448 1446 1445 1443 1441 1440 1439 1437 1436 1434 1433 1431 1430 1428 1426 1425 1423 1421 1419 1418 1416 1415 1413 1412 1412 1411 1407 1406 1405 1404 1403 1401 1400 1399 1398 1397 1396 1395 1393 1392 1391 1390 1389 1387 1386 1386 1385 1384
1485 1483 1481 1480 1478 1476 1474 1472 1470 1468 1466 1465 1463 1461 1459 1457 1456 1454 1452 1450 1449 1447 1446 1444 1442 1441 1440 1438 1436 1435 1434 1432 1431 1430 1428 1427 1425 1423 1421 1419 1418 1416 1415 1414 1414 1413 1410 1408 1407 1406 1404 1403 1402 1401 1400 1399 1398 1397 1396 1394 1393 1392 1391 1390 1389 1388 1387 1386 1385
1485 1483 1481 1479 1477 1475 1473 1471 1470 1468 1466 1464 1462 1461 1459 1457 1455 1453 1451 1450 1448 1446 1445 1443 1441 1440 1439 1437 1436 1435 1434 1432 1431 1430 1429 1427 1426 1423 1421 1420 1418 1416 1415 1416 1415 1412 1410 1409 1408 1406 1405 1404 1402 1401 1400 1399 1398 1397 1396 1395 1394 1393 1392 1391 1390 1389 1388 1387 1386
1484 1482 1481 1478 1477 1475 1473 1471 1469 1467 1466 1464 1462 1460 1458 1456 1455 1453 1451 1449 1447 1446 1444 1442 1441 1440 1439 1437 1436 1435 1434 1432 1431 1430 1429 1427 1426 1423 1421 1420 1418 1416 1416 1418 1416 1412 1411 1409 1408 1406 1405 1404 1403 1402 1401 1400 1399 1398 1397 1396 1396 1395 1393 1392 1391 1390 1389 1388 1387
1484 1482 1480 1478 1476 1475 1473 1471 1469 1467 1466 1464 1462 1460 1458 1456 1454 1452 1450 1448 1446 1445 1444 1442 1441 1440 1438 1437 1436 1435 1433 1432 1431 1430 1429 1427 1425 1423 1421 1420 1419 1417 1416 1418 1416 1414 1411 1410 1409 1407 1406 1405 1404 1403 1402 1401 1400 1399 1398 1398 1397 1396 1395 1394 1393 1391 1390 1389 1389
1484 1482 1480 1478 1476 1475 1473 1471 1469 1467 1465 1463 1461 1459 1457 1455 1453 1451 1450 1448 1446 1445 1444 1442 1441 1439 1438 1437 1436 1435 1433 1432 1431 1430 1428 1427 1425 1423 1421 1421 1420 1417 1416 1417 1417 1415 1411 1411 1409 1408 1407 1406 1404 1403 1402 1401 1401 1400 1400 1399 1398 1398 1397 1396 1394 1393 1392 1391 1390
1484 1482 1480 1478 1476 1475 1473 1471 1469 1467 1465 1463 1461 1459 1457 1455 1453 1451 1450 1448 1446 1445 1443 1441 1440 1439 1437 1436 1435 1434 1433 1432 1431 1430 1428 1427 1425 1423 1422 1421 1420 1418 1416 1416 1417 1415 1413 1411 1410 1409 1407 1406 1405 1404 1403 1402 1401 1401 1401 1400 1400 1399 1398 1397 1396 1395 1394 1392 1392
1484 1482 1480 1478 1476 1475 1473 1471 1469 1467 1465 1463 1461 1459 1457 1455 1453 1451 1449 1447 1446 1444 1443 1441 1440 1438 1437 1436 1435 1434 1433 1432 1431 1430 1428 1427 1425 1423 1422 1421 1419 1418 1416 1416 1416 1416 1414 1412 1411 1410 1408 1407 1406 1404 1403 1403 1402 1402 1401 1401 1401 1400 1400 1399 1397 1396 1396 1395 1394
1483 1481 1480 1478 1476 1475 1473 1471 1469 1467 1465 1463 1461 1459 1457 1455 1453 1451 1449 1447 1446 1444 1443 1442 1440 1439 1438 1436 1436 1434 1433 1432 1431 1430 1428 1427 1425 1424 1422 1421 1420 1418 1417 1416 1416 1416 1416 1413 1411 1410 1409 1407 1406 1405 1404 1403 1402 1402 1402 1402 1401 1401 1401 1400 1399 1398 1397 1397 1396
1483 1482 1480 1478 1476 1475 1472 1471 1469 1467 1465 1463 1461 1459 1457 1455 1453 1451 1449 1447 1446 1445 1443 1442 1441 1439 1438 1437 1436 1434 1433 1432 1431 1430 1428 1427 1426 1424 1422 1421 1420 1419 1418 1417 1416 1416 1416 1414 1412 1411 1410 1408 1407 1406 1404 1404 1403 1402 1402 1402 1402 1401 1401 1401 1400 1400 1399 1399 1398
1484 1482 1480 1478 1476 1475 1472 1471 1469 1467 1465 1463 1461 1458 1456 1455 1453 1451 1449 1448 1446 1445 1443 1442 1440 1439 1437 1436 1435 1434 1433 1432 1431 1430 1429 1427 1426 1424 1423 1421 1420 1419 1418 1417 1416 1415 1416 1415 1413 1411 1410 1409 1407 1406 1405 1404 1403 1403 1402 1402 1402 1401 1401 1401 1401 1400 1400 1400 1400
1484 1482 1481 1478 1476 1475 1473 1471 1469 1467 1465 1463 1461 1459 1456 1455 1453 1451 1450 1448 1446 1445 1443 1442 1440 1439 1437 1436 1435 1434 1433 1432 1431 1430 1429 1428 1426 1425 1423 1421 1420 1419 1418 1417 1416 1415 1415 1416 1414 1411 1410 1409 1408 1407 1406 1405 1404 1403 1403 1402 1402 1402 1401 1401 1401 1401 1401 1401 1401
1484 1483 1481 1479 1477 1475 1473 1471 1469 1467 1465 1463 1461 1459 1457 1455 1453 1451 1450 1448 1447 1445 1444 1442 1440 1439 1438 1437 1436 1435 1434 1433 1431 1431 1429 1428 1427 1425 1423 1422 1421 1419 1418 1418 1416 1416 1415 1415 1415 1412 1409 1408 1408 1407 1406 1406 1405 1404 1403 1403 1402 1402 1402 1402 1402 1402 1401 1401 1402
1485 1483 1481 1479 1477 1475 1473 1471 1470 1468 1466 1463 1461 1459 1457 1455 1453 1452 1450 1449 1448 1446 1444 1442 1441 1439 1438 1437 1436 1435 1434 1433 1432 1431 1430 1428 1427 1426 1424 1422 1421 1420 1419 1418 1417 1416 1415 1414 1414 1412 1410 1409 1408 1407 1407 1406 1406 1405 1405 1404 1403 1403 1403 1403 1403 1403 1403 1403 1403
1485 1483 1481 1479 1477 1475 1473 1471 1470 1468 1466 1464 1461 1459 1457 1455 1454 1452 1451 1450 1448 1447 1445 1443 1441 1440 1439 1438 1436 1435 1434 1433 1432 1431 1430 1429 1427 1426 1425 1423 1421 1420 1419 1418 1417 1416 1416 1415 1414 1413 1412 1410 1409 1408 1408 1407 1407 1406 1406 1405 1405 1405 1404 1404 1404 1404 1404 1404 1403
1485 1483 1481 1479 1477 1475 1473 1471 1470 1468 1466 1464 1461 1459 1457 1456 1455 1453 1452 1450 1449 1447 1446 1444 1442 1441 1439 1438 1437 1436 1434 1433 1432 1431 1430 1429 1427 1426 1425 1423 1421 1420 1419 1418 1418 1417 1416 1416 1416 1415 1413 1411 1410 1409 1409 1408 1408 1408 1407 1407 1407 1406 1406 1406 1406 1406 1405 1405 1405